898  
ASUS41 KLWX 230311  
RWRLWX  
 
REGIONAL WEATHER ROUNDUP  
NATIONAL WEATHER SERVICE BALTIMORE MD/WASHINGTON DC  
1100 PM EDT SUN APR 22 2018  
 
NOTE: "FAIR" INDICATES FEW OR NO CLOUDS BELOW 12,000 FEET  
WITH NO SIGNIFICANT WEATHER AND/OR S TO VISIBILITY
.  
TC=TEMPERATURE CELSIUS  
 
* =NON NWS SITE. STATION DOES NOT REPORT PRECIPITATION (E.G. RAIN,  
SNOW, ETC.), THUNDER, OR FOG.
 
 
DCZ001-MDZ009-015-VAZ040>042-051-053>054-230400-  
WASHINGTON METRO  
 
CITY SKY/WX TMP DP RH WIND PRES REMARKS
 
WASHINGTON NAT MOCLDY 55 38 52 SE6 30.40R  
DULLES CLOUDY 54 35 48 SE6 30.38R  
ANDREWS AFB FAIR 50 35 56 E7 30.38S  
QUANTICO CLOUDY 55 41 59 E6 30.39S  
COLLEGE PARK* FAIR 52 35 52 CALM 30.39S  
LEESBURG* MOCLDY 55 41 58 SE5 30.39R  
MANASSAS* CLOUDY 54 36 50 E5 30.38R  
GAITHERSBURG* FAIR 53 35 50 SE6 30.39R  
 

 
 
MDZ006>007-011-014-230400-  
BALTIMORE METRO  
 
CITY SKY/WX TMP DP RH WIND PRES REMARKS
 
BWI AIRPORT MOCLDY 51 37 58 CALM 30.39S  
MD SCIENCE CTR N/A 55 39 54 MISG 30.40S  
MARTIN STATE CLOUDY 54 45 71 CALM 30.41S  
ANNAPOLIS CLOUDY 56 44 64 S8 30.39S  
FORT MEADE* MOCLDY 52 36 54 CALM 30.42S  
 

 
 
MDZ012-015-019>023-230400-  
MARYLAND EASTERN SHORE  
 
CITY SKY/WX TMP DP RH WIND PRES REMARKS
 
OCEAN CITY CLOUDY 49 43 80 S3 30.42S  
SALISBURY CLOUDY 49 43 80 CALM 30.40F  
BAY BRIDGE AP* CLOUDY 54 41 62 SE3 30.40S  
CAMBRIDGE* MOCLDY 52 39 62 SE3 30.41S  
EASTON* MOCLDY 52 38 58 S5 30.44S  
 

 
 
MDZ017>025-230400-  
SOUTHERN MARYLAND  
 
CITY SKY/WX TMP DP RH WIND PRES REMARKS
 
PATUXENT RIVER FAIR 54 44 69 SE8 30.39S  
ST INIGOES NOT AVBL  
LEONARDTOWN* FAIR 50 37 62 E5 30.41S  
 

 
 
MDZ003>005-230400-  
NORTH CENTRAL MARYLAND  
 
CITY SKY/WX TMP DP RH WIND PRES REMARKS
 
FREDERICK* FAIR 50 32 50 CALM 30.40S  
HAGERSTOWN APT FAIR 56 37 49 E5 30.36R  
WESTMINSTER* FAIR 54 37 54 S5 30.38S  
 

 
 
MDZ501>502-230400-  
WESTERN MARYLAND  
 
CITY SKY/WX TMP DP RH WIND PRES REMARKS
 
OAKLAND* FAIR 46 36 66 E16G22 30.30F  
CUMBERLAND* FAIR 55 36 47 CALM 30.38R  
 

 
 
VAZ025>031-230400-  
SHENANDOAH VALLEY  
 
CITY SKY/WX TMP DP RH WIND PRES REMARKS
 
WINCHESTER* MOCLDY 50 37 62 SE6 30.37R  
FRONT ROYAL* CLOUDY 55 39 54 E6 30.33S  
LURAY* FAIR 54 43 66 NE6 30.33R  
NEW MARKET* MOCLDY 52 45 76 CALM 30.30S  
STAUNTON* FAIR 56 41 56 CALM 30.33S  
WAYNESBORO* FAIR 57 40 53 SE7 30.32S  
 

 
 
WVZ021-048>050-054>055-230400-  
EASTERN WEST VIRGINIA PANHANDLE  
 
CITY SKY/WX TMP DP RH WIND PRES REMARKS
 
MARTINSBURG MOCLDY 55 36 48 CALM 30.35S  
PETERSBURG* FAIR 49 43 78 CALM 30.31S  
 

 
 
VAZ036>039-050-230400-  
CENTRAL FOOTHILLS  
 
CITY SKY/WX TMP DP RH WIND PRES REMARKS
 
CHARLOTTESVILL MOCLDY 61 42 49 E3 30.34R  
CULPEPER* FAIR 51 38 60 CALM 30.38R  
ORANGE* FAIR 52 37 58 CALM 30.35R  
GORDONSVILLE* FAIR 55 41 60 CALM 30.35R  
WARRENTON* CLOUDY 54 36 50 NE3 30.37R  
 

 
 
VAZ055>057-230400-  
NORTH AND CENTRAL PIEDMONT  
 
CITY SKY/WX TMP DP RH WIND PRES REMARKS
 
FREDERICKSBRG* FAIR 52 41 66 E3 30.37R  
STAFFORD* CLOUDY 54 38 55 E5 30.41R  
 

 
 
NCZ024-NYZ072-PAZ021-071-VAZ022-071-230400-  
OTHER REGIONAL OBSERVATIONS  
 
CITY SKY/WX TMP DP RH WIND PRES REMARKS
 
NEW YORK CITY FAIR 52 27 38 CALM 30.41R  
PHILADELPHIA FAIR 50 34 54 S6 30.40S  
PITTSBURGH FAIR 57 30 35 E9 30.27R  
ROANOKE MOCLDY 59 39 47 SE6 30.32S  
RICHMOND CLOUDY 52 39 61 SE7 30.37R  
RALEIGH CLOUDY 61 40 45 SE14G21 30.34R  
 

 
 
ANZ530>537-230400-  
MARINE OBSERVATIONS  
 
STATION/POSITION TIME TEMP WIND PRES
 
AIR SEA DIR/SP/G  
(UTC) (F) (DEG/KT/KT) (MB)  
THOMAS PT LIGHT 0200 53 53 180/ 7/ 7 1030.4R  
BALT KEY BRIDGE 0236 54 170/ 8/ 9 1029.3R  
COVE POINT 0236 53 170/ 13/ 15 1029.9R  
LEWISETTA 0236 53 56 150/ 7/ 9 1029.0R  
SOLOMONS ISLAND 0236 53 53 130/ 9/ 10 1029.0R  
PINEY POINT 0248 150/ 13/ 14 N/A  
 

 
 
 
 
CLICK HERE TO GO TO PREVIOUS BULLETINS.

The Nexlab VA Page
The Nexlab MD Page
The Nexlab WV Page Main Text Page